Baton Rouge, LA

10:55 PM CST on January 21, 2018 (GMT -0600)
Baton Rouge Metro-Ryan

Weather History for KBTR - January, 2014

Change the Weather History Date:

Tuesday, January 28, 2014

  Actual Average Record
Temperature  
Mean Temperature 32 °F 52 °F  
Max Temperature 40 °F 63 °F 82 °F (1957)
Min Temperature 24 °F 42 °F 20 °F (1940)
Degree Days  
Heating Degree Days 33 13  
Month to date heating degree days 546 387  
Since 1 July heating degree days 1270 1003  
Cooling Degree Days 0 0  
Month to date cooling degree days 0 3  
Year to date cooling degree days 0 3  
Moisture  
Dew Point 18 °F    
Average Humidity 60    
Maximum Humidity 85    
Minimum Humidity 34    
Precipitation  
Precipitation 0.15 in 0.18 in 1.48 in (1997)
Month to date precipitation 2.09 5.14  
Year to date precipitation 2.09 5.14  
Snow  
Snow 0.10 in - - ()
Month to date snowfall 0.4  
Since 1 July snowfall 0.4  
Snow Depth 0.00 in    
Sea Level Pressure  
Sea Level Pressure 30.28 in    
Wind  
Wind Speed 9 mph (North)    
Max Wind Speed 16 mph    
Max Gust Speed 24 mph    
Visibility 6 miles    
Events Rain    
T = Trace of Precipitation, MM = Missing Value Source: NWS Daily Summary

Daily Weather History Graph

Daily Weather History Graph

Search for Another Location

Airport or City:

Trip Planner

Search our weather history database for the weather conditions in past years. The results will help you decide how hot, cold, wet, or windy it might be!

Date:

Astronomy

Jan. 28, 2014 Rise Set
Actual Time 6:57 AM CST 5:37 PM CST
Civil Twilight 6:32 AM CST 6:02 PM CST
Nautical Twilight 6:03 AM CST 6:31 PM CST
Astronomical Twilight 5:35 AM CST 7:00 PM CST
Moon 4:37 AM CST (1/28) 3:30 PM CST (1/28)
Length of Visible Light 11h 30m
Length of Day
10h 39m
Waning Crescent, 7% of the Moon is Illuminated
Jan 28
Waning Crescent
Jan 30
New
Feb 6
First Quarter
Feb 14
Full
Feb 22
Last Quarter

Hourly Weather History & Observations

Time (CST) Temp. Windchill Dew Point Humidity Pressure Visibility Wind Dir Wind Speed Gust Speed Precip Events Conditions
12:53 AM 37.9 °F 31.5 °F 12.9 °F 36% 30.14 in - North 9.2 mph - N/A   Overcast
1:53 AM 37.0 °F 29.3 °F 12.9 °F 37% 30.14 in - NNE 11.5 mph 19.6 mph N/A   Overcast
2:53 AM 35.1 °F 27.4 °F 10.0 °F 35% 30.14 in - North 10.4 mph 18.4 mph N/A   Overcast
3:53 AM 34.0 °F 25.0 °F 10.0 °F 37% 30.17 in - North 12.7 mph 21.9 mph N/A   Overcast
4:53 AM 32.0 °F 24.8 °F 14.0 °F 48% 30.19 in 10.0 mi North 8.1 mph 20.7 mph N/A   Overcast
5:53 AM 30.9 °F 24.3 °F 18.0 °F 59% 30.19 in - Variable 6.9 mph - N/A   Overcast
6:53 AM 30.0 °F 20.5 °F 18.0 °F 61% 30.22 in 10.0 mi North 11.5 mph 20.7 mph N/A   Overcast
7:53 AM 28.9 °F 20.4 °F 23.0 °F 78% 30.25 in 10.0 mi North 9.2 mph 18.4 mph 0.01 in   Overcast
8:53 AM 28.0 °F 20.0 °F 23.0 °F 81% 30.28 in 10.0 mi NNW 8.1 mph - 0.01 in   Overcast
9:53 AM 28.0 °F 20.8 °F 23.0 °F 81% 30.32 in 10.0 mi NNE 6.9 mph - 0.00 in   Overcast
10:53 AM 28.0 °F 20.8 °F 24.1 °F 85% 30.30 in 10.0 mi North 6.9 mph - 0.00 in   Overcast
11:53 AM 28.0 °F 19.3 °F 24.1 °F 85% 30.28 in 10.0 mi North 9.2 mph - 0.01 in   Overcast
12:53 PM 27.0 °F 17.3 °F 21.0 °F 78% 30.28 in 5.0 mi NNE 10.4 mph - 0.01 in   Ice Pellets
1:00 PM 27.0 °F 17.3 °F 21.9 °F 81% 30.27 in 5.0 mi North 10.4 mph - 0.00 in   Ice Pellets
1:53 PM 26.1 °F 18.4 °F 21.9 °F 84% 30.27 in 3.0 mi North 6.9 mph - 0.01 in   Ice Pellets
2:11 PM 26.1 °F 18.4 °F 21.9 °F 84% 30.27 in 2.5 mi NNW 6.9 mph - 0.00 in   Ice Pellets
2:31 PM 25.0 °F 16.3 °F 21.9 °F 88% 30.27 in 2.5 mi NNW 8.1 mph - 0.01 in   Ice Pellets
2:51 PM 26.6 °F 17.5 °F 19.4 °F 74% 30.27 in 2.5 mi North 9.2 mph 19.6 mph 0.01 in   Ice Pellets
2:53 PM 26.1 °F 17.6 °F 19.9 °F 78% 30.27 in 3.0 mi North 8.1 mph 18.4 mph 0.01 in   Ice Pellets
3:26 PM 26.1 °F 16.8 °F 21.0 °F 81% 30.28 in 5.0 mi North 9.2 mph - 0.01 in   Ice Pellets
3:34 PM 26.1 °F 16.8 °F 21.0 °F 81% 30.27 in 5.0 mi North 9.2 mph - 0.01 in   Ice Pellets
3:53 PM 25.0 °F 15.5 °F 19.0 °F 78% 30.29 in 5.0 mi North 9.2 mph 17.3 mph 0.02 in   Ice Pellets
4:53 PM 25.0 °F 18.1 °F 19.0 °F 78% 30.31 in 5.0 mi North 5.8 mph - 0.04 in   Ice Pellets
5:35 PM 25.0 °F 15.5 °F 19.9 °F 81% 30.33 in 5.0 mi North 9.2 mph - 0.03 in Rain Light Freezing Rain
5:53 PM 25.0 °F 18.1 °F 19.9 °F 81% 30.34 in 5.0 mi North 5.8 mph - 0.03 in   Light Freezing Drizzle
6:49 PM 24.8 °F 16.1 °F 17.6 °F 74% 30.34 in 10.0 mi North 8.1 mph - 0.00 in   Overcast
6:53 PM 25.0 °F 16.3 °F 18.0 °F 75% 30.34 in 10.0 mi North 8.1 mph - 0.00 in   Overcast
7:53 PM 26.1 °F 17.6 °F 17.1 °F 69% 30.37 in - North 8.1 mph - N/A   Overcast
8:53 PM 26.1 °F 16.8 °F 17.1 °F 69% 30.38 in - North 9.2 mph 18.4 mph N/A   Overcast
9:53 PM 26.1 °F 17.6 °F 15.1 °F 63% 30.38 in - North 8.1 mph - N/A   Scattered Clouds
10:53 PM 26.1 °F 16.8 °F 12.9 °F 58% 30.40 in - North 9.2 mph - N/A   Mostly Cloudy
11:53 PM 26.1 °F 17.6 °F 12.0 °F 55% 30.39 in - North 8.1 mph - N/A   Clear